FW3958 Weather Reports


Display with metric or nautical units.
time (UTC)temp
F
wind
direction
speed
MPH
gust
MPH
rain 1hr
in
rain 24hr
in
rain mn
in
humidity
%
barometer
mb
20260504021516 75 322 5.0 12.0 0.00 0.00 0.00 56 1010.0
20260504020010 75 349 5.0 10.0 0.00 0.00 0.00 56 1010.0
20260504014509 76 9 4.0 14.0 0.00 0.00 0.00 56 1009.9
20260504013009 76 38 6.0 13.0 0.00 0.00 0.00 56 1010.1
20260504011506 77 9 6.0 16.0 0.00 0.00 0.00 56 1010.2
20260504010004 78 335 8.0 14.0 0.00 0.00 0.00 58 1010.2
20260504004502 79 326 6.0 13.0 0.00 0.00 0.00 56 1010.2
20260504003001 80 14 5.0 11.0 0.00 0.00 0.00 55 1010.2
20260504001600 80 33 6.0 10.0 0.00 0.00 0.00 56 1010.3
20260504000138 80 31 6.0 15.0 0.00 0.00 0.00 54 1010.5
20260503234600 80 1 11.0 17.0 0.00 0.00 0.00 53 1010.5
20260503233054 83 12 9.0 15.0 0.00 0.00 0.00 51 1010.4
20260503231550 85 9 2.0 13.0 0.00 0.00 0.00 50 1010.7
20260503230050 84 318 4.0 12.0 0.00 0.00 0.00 47 1010.7
20260503224546 84 349 4.0 15.0 0.00 0.00 0.00 50 1010.9
20260503223045 82 360 6.0 12.0 0.00 0.00 0.00 54 1011.1
20260503221550 83 313 6.0 15.0 0.00 0.00 0.00 50 1011.1
20260503220041 84 2 2.0 10.0 0.00 0.00 0.00 47 1011.3
20260503214543 84 5 5.0 10.0 0.00 0.00 0.00 50 1011.4
20260503213037 84 298 4.0 11.0 0.00 0.00 0.00 52 1011.4
20260503211538 83 334 2.0 9.0 0.00 0.00 0.00 56 1011.5
20260503210034 82 309 3.0 10.0 0.00 0.00 0.00 57 1011.6
20260503204534 82 319 3.0 10.0 0.00 0.00 0.00 57 1011.7
20260503203040 81 313 7.0 11.0 0.00 0.00 0.00 56 1011.9
20260503201535 83 306 1.0 8.0 0.00 0.00 0.00 60 1012.1
20260503200027 85 49 1.0 11.0 0.00 0.00 0.00 43 1012.1
20260503194525 84 59 0.0 11.0 0.00 0.00 0.00 45 1012.3
20260503193022 83 116 5.0 12.0 0.00 0.00 0.00 45 1012.5
20260503191518 83 21 0.0 5.0 0.00 0.00 0.00 51 1012.7
20260503190017 82 59 1.0 11.0 0.00 0.00 0.00 47 1012.8
20260503184512 81 66 1.0 10.0 0.00 0.00 0.00 51 1013.0
20260503183009 80 95 4.0 13.0 0.00 0.00 0.00 52 1013.2
20260503181506 79 24 0.0 8.0 0.00 0.00 0.00 53 1013.2
20260503180002 78 53 2.0 11.0 0.00 0.00 0.00 53 1013.3
20260503174600 77 347 4.0 10.0 0.00 0.00 0.00 54 1013.3
20260503173101 77 72 0.0 9.0 0.00 0.00 0.00 57 1013.5
20260503171559 75 108 1.0 8.0 0.00 0.00 0.00 58 1013.6
20260503130104 47 259 0.0 0.0 0.00 0.00 0.00 100 1013.7
20260503081533 46 259 0.0 1.0 0.00 0.00 0.00 100 1014.8
20260503071524 48 186 0.0 0.0 0.00 0.00 0.00 100 1015.4
20260503054516 50 186 0.0 0.0 0.00 0.00 0.00 100 1015.8
20260503053017 50 186 0.0 0.0 0.00 0.00 0.00 100 1015.9
20260503051513 50 186 0.0 0.0 0.00 0.00 0.00 100 1016.1
20260503050012 51 186 0.0 0.0 0.00 0.00 0.00 100 1016.1
20260503044522 51 186 0.0 3.0 0.00 0.00 0.00 100 1016.0
20260503043012 52 180 1.0 3.0 0.00 0.00 0.00 99 1015.8
20260503041512 52 180 0.0 2.0 0.00 0.00 0.00 98 1015.6
20260503040010 53 178 1.0 4.0 0.00 0.00 0.00 98 1015.5
20260503034510 54 181 1.0 3.0 0.00 0.00 0.00 97 1015.1
20260503033010 54 182 3.0 7.0 0.00 0.00 0.00 96 1015.0
20260503031510 55 179 0.0 3.0 0.00 0.00 0.00 94 1014.8
20260503030108 56 184 3.0 6.0 0.00 0.00 0.00 93 1014.9
20260503024509 58 183 3.0 7.0 0.00 0.00 0.00 91 1014.9
20260503023024 59 169 3.0 7.0 0.00 0.00 0.00 90 1014.7